GPM-CORE

Last updated on Thu Jul 03 2025 00:02:30 GMT+0000 (Coordinated Universal Time)

1 39574U 14009C 25183.54741796 .00009636 00000+0 21150-3 0 9999 2 39574 64.9774 39.3079 0011251 250.9307 109.0615 15.44495827643806
UTC large
Height (km)
Speed (km/s)
/
Latitude / Longitude
Inclination (degrees)
Orbital Period (minutes)
Azimuth
Elevation
Range (km)
Doppler Factor

Next 0 passes for location: London (51.5072 / 0.1276)

Sorry there are no passes over London.